{"data":{"norad_id":62198,"intl_designator":"2024-229G","name":"STARLINK-32640","alt_names":[],"object_type":"PAYLOAD","status":"ACTIVE","operator":null,"country":"US","launch_date":"2024-12-04","launch_site_code":"AFETR","launch_vehicle":null,"mission":null,"orbit_class":"UNKNOWN","rcs_meters":null,"size_class":null,"mass_kg":null,"dimensions":null,"purposes":["comms"],"wikipedia_slug":null,"has_3d_model":false,"image_url":null,"decayed_at":null,"tle_current":{"epoch":"2026-09-21T07:49:39.264096Z","epoch_age_seconds":106846,"freshness":"FRESH","line1":"1 62198U 24229G   26264.32614889  .00015565  00000+0  57360-3 0  9991","line2":"2 62198  43.0039 245.6761 0002100 283.6652  76.3966 15.27598858100481","mean_motion":15.27598858,"eccentricity":0.00021,"inclination_deg":43.0039,"raan_deg":245.6761,"arg_perigee_deg":283.6652,"mean_anomaly_deg":76.3966,"bstar":0.0005736,"rev_number":10048,"period_min":94.265585003468,"perigee_km":481.55179176234,"apogee_km":484.43346620651,"semimajor_km":6861.1296289844,"source":"CELESTRAK","updated_at":"2026-09-22T09:00:49.540091Z"}}}